Погода в Юсте

Погода в Юсте : погода сейчас, прогноз погоды и архив. Всё, что Вы хотите узнать о погоде в Юсте!

Хотите узнать прогноз погоды в Юсте? Тогда Вам сюда: Погода в Юсте

Поиск расширенной информации на нашем сайте:

Другие новости

Новости СМИ2

Главная страница сайта

Новости сайта

03.07.2017

Напоминаем, что на нашем специализированном сайте Метеоцентр.Азия вы можете получить высокодетализированные автоматические прогнозы погоды по пунктам России, СНГ и мира в авиационном формате (включающие направление и скорость ветра, видимость, явления погоды, количество и форму облачности, нижнюю и верхнюю границу облачности).

Рекомендуем: Мебель для гостиной мебель в гостиную.

Погода в Юсте - сегодня

Время (UTC), дата Ветер
(°,м/с) 
Видим.   Явления Облачность Т
(°С)
Тd
(°С)
f(%) Тe
(°С)
Pmin
(гПа)
dP
(гПа)
Po
(мм)
O2
(г/м3)
Тmin Tmax R s Состояние
почвы
12 09.12.17 190 (Ю) 20000 м    ясно 
+1.1 -7.2 54 1025.4  -0.3  769  309           
15 09.12.17 180 (Ю) 10 км    8/0 средняя 
[Ac und]
-1.5 -5.1 76 -2  1025.9  0.5  769  312    +1.1       
18 09.12.17 170 (Ю) 10 км    9/0 средняя 
[Ac und]
-1.1 -4.8 76 -3  1025.4  -0.5  769  312           
21 09.12.17 180 (Ю) 10 км    9/0 средняя 
[Ac As]
-0.9 -3.7 81 -3  1025.5  0.1  769  311           
00 10.12.17 170 (Ю) 10 км    9/9 300 м 
[Sc]
-0.7 -3.1 84 -3  1025  -0.5  768  311           
03 10.12.17 160 (Ю) 10 км    ясно 
-1 -2.5 90 -3  1024.4  -0.6  768  311  -1.8         
06 10.12.17 160 (Ю) 4000 м  дымка  10/10 300 м 
[St]
+0.7 +0.5 99 -1  1025.1  0.8  769  309           
09 10.12.17 140 (ЮВ) 20000 м  в посл. час туман  9/9 300 м 
[Sc]
+2.2 +1.7 96 +1  1024.8  -0.4  768  307           
12 10.12.17 140 (ЮВ) 20000 м  {туман}  3/0 верхняя 
[Ci fib]
+5.3 +1.4 76 +4  1023.7  -1.1  767  303           
15 10.12.17 140 (ЮВ) 10 км    ясно 
+1.3 +0.5 94 1023.6  767  308    +5.3       
18 10.12.17 140 (ЮВ) 10 км    ясно 
-0.2 -0.4 99 -2  1022.7  -1  767  309           
21 10.12.17 110 (В) 10 км    9/0 средняя 
[Ac As]
+0.1 -0.5 96 -2  1022.2  -0.5  766  309           
00 11.12.17 110 (В) 10 км    9/9 600 м 
[Sc]
+1.2 +0.7 96 -1  1022  -0.2  766  307           
03 11.12.17 110 (В) 10 км    9/9 300 м 
[Sc]
+1.9 +0 87 1021.4  -0.6  766  306  -0.9         
06 11.12.17 180 (Ю) 4000 м  слаб. дождь  10/10 300 м 
[Ns]
+1.9 +0.8 92 +3  1024.4  768  307           
09 11.12.17 160 (Ю) 20000 м  {дождь}  9/0 средняя 
[Ac As]
+2.7 +2 95 +2  1024.9  0.6  768  306           
12 11.12.17 170 (Ю) 20000 м  {дождь}  9/9 600 м 
[Sc]
+3.4 +2.6 94 +4  1025.5  0.6  769  306           
15 11.12.17 170 (Ю) 10 км    3/0 средняя 
[Ac trans]
+2 +1.6 97 +1  1027.3  1.7  770  308    +3.5  0.7     
18 11.12.17 280 (З) 10 км    ясно 
-0.5 -0.8 98 -1  1028.1  0.8  771  311           
21 11.12.17 240 (ЮЗ) 10 км    9/0 средняя 
[Ac As]
-0.7 -1.3 96 -2  1028.6  0.5  771  312           
00 12.12.17 250 (З) 10 км    9/9 600 м 
[Sc]
-0.6 -1.4 94 -1  1028.7  -0.1  771  312           
03 12.12.17 240 (ЮЗ) 10 км    9/9 600 м 
[Sc]
-0.5 -1.2 95 -1  1028.4  -0.2  771  311  -1.5         
06 12.12.17 180 (Ю) 20000 м    10/0 средняя 
[Ac As]
+0.6 -0.6 92 -1  1027.9  -0.6  771  310           
09 12.12.17 180 (Ю) 20000 м    10/8 600 м средняя 
[Sc|Ac trans]
+4.1 +0.4 77 +4  1027.8  -0.1  771  306           
12 12.12.17 180 (Ю) 20000 м    9/9 600 м 
[Sc]
+5.1 +1.8 79 +4  1027.5  -0.3  770  304           
Время (UTC), дата Ветер
(°,м/с) 
Видим.   Явления Облачность Т
(°С)
Тd
(°С)
f(%) Тe
(°С)
Pmin
(гПа)
dP
(гПа)
Po
(мм)
O2
(г/м3)
Тmin Tmax R s Состояние
почвы

Для получения пояснительной информации подведите курсор к названию столбца.

ПОГОДА в Юсте - архив

Всё, что Вы хотите узнать о погоде в Юсте - удобно и подробно!

Выберите нужную дату (начиная с 1 января 2015* года) и нажмите кнопку "Найти".
Будут отображены архивные сводки погоды по пункту Юста, начиная с указанной даты.


Отображать данные в формате CSV (для использования в таблицах Excel)


Внимание! Наш архив погоды предназначен исключительно для личного некоммерческого использования в познавательных целях. Если Вам необходимы официальные справки о состоянии погоды (для производственных, юридических, коммерческих и т.п. целей), обращайтесь в органы Росгидромета.

*Примечание: данная дата относится к архиву по метеостанциям СССР (Россия, СНГ, Балтия).
Архив по метеостанциям Зарубежной Европы и Азии (кроме Китая) хранится 10 дней, по другим регионам земного шара (Китай, Африка, Америка, Австралия, Океания) - 1 день.

Юста - район местоположения метеостанции


Название, широта, долгота, высота метеостанции:
Юста 47.1°ш. 46.3°д. 2 м над ур. моря [Российская Федерация]

Дополнительная информация

В oтличие oт бoльшинства пoгoдных сайтoв мы публикуем пoдрoбную метеoинфoрмацию в детальнoм прoфессиoнальнoм фoрмате.

Характеристики температуры и влажнoсти вoздуха измеряются на высoте 2 м в тени вдали oт зданий и деревьев.
Скoрoсть ветра измеряется на высoте 10 м (на урoвне рoста челoвека скoрoсть ветра ниже в 1.5-2 раза). Если метеoстанция нахoдится в гoрoде или в лесу, тo скoрoсть ветра занижена на 2-4 м/с пo сравнению с oткрытым местoм. Скoрoсть ветра над акватoриями крупных рек и oзёр, а также на вершинах хoлмoв на 2-5 м/с выше, чем в oбычных услoвиях.
Атмoсфернoе давление в разных тoчках местнoсти мoжет значительнo oтличаться oт давления на метеoстанции, в зависимoсти oт услoвий рельефа (при пoдъёме на 10 м давление пoнижается примернo на 1 мм рт.ст.).